TimeEST,TemperatureF,Dew PointF,Humidity,Sea Level PressureIn,VisibilityMPH,Wind Direction,Wind SpeedMPH,Gust SpeedMPH,PrecipitationIn,Events,Conditions,WindDirDegrees,DateUTC
12:54 AM,39.0,37.0,93,29.91,5.0,Calm,Calm,-,0.01,Rain,Light Rain,0,2012-11-07 05:54:00
1:54 AM,37.9,37.0,97,29.91,4.0,Calm,Calm,-,0.01,Rain,Light Rain,0,2012-11-07 06:54:00
2:34 AM,37.4,37.4,100,29.90,4.0,ESE,3.5,-,0.01,Rain,Light Rain,110,2012-11-07 07:34:00
2:54 AM,37.9,37.0,97,29.91,3.0,ESE,3.5,-,0.01,,Overcast,120,2012-11-07 07:54:00
3:54 AM,39.0,37.0,93,29.91,3.0,ESE,3.5,-,N/A,,Overcast,110,2012-11-07 08:54:00
4:54 AM,39.0,37.0,93,29.91,4.0,East,5.8,-,N/A,,Overcast,100,2012-11-07 09:54:00
5:54 AM,39.0,37.0,93,29.93,4.0,ENE,4.6,-,N/A,,Overcast,70,2012-11-07 10:54:00
6:54 AM,39.0,37.0,93,29.95,4.0,ENE,5.8,-,N/A,,Overcast,70,2012-11-07 11:54:00
7:22 AM,39.2,37.4,93,29.95,2.0,ENE,6.9,-,N/A,,Overcast,60,2012-11-07 12:22:00
7:39 AM,39.2,37.4,93,29.96,2.0,ENE,8.1,-,N/A,,Overcast,70,2012-11-07 12:39:00
7:54 AM,39.0,37.0,93,29.97,2.0,ENE,5.8,-,N/A,,Overcast,60,2012-11-07 12:54:00
8:54 AM,39.9,37.9,93,30.00,2.0,NE,5.8,-,N/A,,Overcast,50,2012-11-07 13:54:00
9:26 AM,39.2,37.4,93,30.00,2.5,ENE,5.8,-,N/A,,Overcast,70,2012-11-07 14:26:00
9:54 AM,41.0,37.9,89,30.02,2.0,ENE,3.5,-,N/A,,Overcast,70,2012-11-07 14:54:00
10:54 AM,42.1,37.9,85,30.05,4.0,NNE,4.6,-,N/A,,Overcast,30,2012-11-07 15:54:00
11:13 AM,42.8,37.4,81,30.04,4.0,NE,4.6,-,N/A,,Overcast,50,2012-11-07 16:13:00
11:54 AM,43.0,37.9,82,30.06,5.0,NE,3.5,-,N/A,,Haze,40,2012-11-07 16:54:00
12:54 PM,45.0,37.0,74,30.05,6.0,Calm,Calm,-,N/A,,Haze,0,2012-11-07 17:54:00
1:37 PM,46.4,37.4,71,30.04,7.0,NE,6.9,-,N/A,,Mostly Cloudy,40,2012-11-07 18:37:00
1:44 PM,46.4,35.6,66,30.04,8.0,NNE,4.6,-,N/A,,Scattered Clouds,30,2012-11-07 18:44:00
1:54 PM,46.9,37.9,71,30.05,8.0,NE,6.9,-,N/A,,Mostly Cloudy,40,2012-11-07 18:54:00
2:23 PM,46.4,37.4,71,30.04,7.0,North,3.5,-,N/A,,Scattered Clouds,360,2012-11-07 19:23:00
2:54 PM,46.9,35.1,63,30.05,8.0,Calm,Calm,-,N/A,,Mostly Cloudy,0,2012-11-07 19:54:00
3:24 PM,48.2,35.6,62,30.04,8.0,Variable,5.8,-,N/A,,Mostly Cloudy,0,2012-11-07 20:24:00
3:33 PM,46.4,35.6,66,30.05,8.0,North,5.8,-,N/A,,Overcast,10,2012-11-07 20:33:00
3:54 PM,46.0,37.0,71,30.07,7.0,North,6.9,-,N/A,,Overcast,350,2012-11-07 20:54:00
4:54 PM,45.0,36.0,71,30.09,7.0,NNW,5.8,-,N/A,,Overcast,340,2012-11-07 21:54:00
6:54 PM,43.0,37.0,80,30.12,8.0,NNW,4.6,-,N/A,,Overcast,340,2012-11-07 23:54:00
7:54 PM,41.0,37.0,86,30.14,6.0,NNW,9.2,-,N/A,,Scattered Clouds,340,2012-11-08 00:54:00
8:54 PM,39.9,37.0,89,30.14,5.0,NNW,9.2,-,N/A,,Clear,330,2012-11-08 01:54:00
9:54 PM,37.0,35.1,93,30.16,4.0,Calm,Calm,-,N/A,,Clear,0,2012-11-08 02:54:00
10:50 PM,35.6,35.6,100,30.16,2.5,Calm,Calm,-,N/A,,Clear,0,2012-11-08 03:50:00
10:54 PM,36.0,35.1,97,30.17,3.0,Calm,Calm,-,N/A,,Clear,0,2012-11-08 03:54:00
11:33 PM,33.8,33.8,100,30.16,1.8,Calm,Calm,-,N/A,,Clear,0,2012-11-08 04:33:00
11:41 PM,33.8,33.8,100,30.16,0.8,Calm,Calm,-,N/A,,Mist,0,2012-11-08 04:41:00
11:52 PM,33.8,32.0,93,30.16,0.2,WNW,3.5,-,N/A,Fog,Fog,290,2012-11-08 04:52:00
11:54 PM,33.1,32.0,96,30.17,0.5,WNW,3.5,-,N/A,Fog,Fog,290,2012-11-08 04:54:00